Bay City, TX

1:46 PM CDT on September 21, 2017 (GMT -0500)
Bay City

Weather History for KBYY - January, 2013

Change the Weather History Date:

Monday, January 14, 2013

  Actual Average (KLBX) Record (KLBX)
Temperature  
Mean Temperature 44 °F -  
Max Temperature 49 °F 61 °F 75 °F (2007)
Min Temperature 40 °F 45 °F 26 °F (2009)
Degree Days  
Heating Degree Days 20    
Moisture  
Dew Point 41 °F    
Average Humidity 83    
Maximum Humidity 100    
Minimum Humidity 68    
Precipitation  
Precipitation 0.00 in - - ()
Sea Level Pressure  
Sea Level Pressure 30.12 in    
Wind  
Wind Speed 11 mph (NNE)    
Max Wind Speed 17 mph    
Max Gust Speed 24 mph    
Visibility 10 miles    
Events      
Averages and records for this station are not official NWS values.
T = Trace of Precipitation, MM = Missing Value Source: NWS Daily Summary

Daily Weather History Graph

Daily Weather History Graph

Search for Another Location

Airport or City:

Trip Planner

Search our weather history database for the weather conditions in past years. The results will help you decide how hot, cold, wet, or windy it might be!

Date:

Astronomy

Jan. 14, 2013 Rise Set
Actual Time 7:18 AM CST 5:47 PM CST
Civil Twilight 6:52 AM CST 6:13 PM CST
Nautical Twilight 6:23 AM CST 6:42 PM CST
Astronomical Twilight 5:54 AM CST 7:10 PM CST
Moon 9:10 AM CST (1/14) 9:12 PM CST (1/14)
Length of Visible Light 11h 20m
Length of Day
10h 29m
Waxing Crescent, 11% of the Moon is Illuminated
Jan 14
Waxing Crescent
Jan 18
First Quarter
Jan 26
Full
Feb 3
Last Quarter
Feb 10
New

Hourly Weather History & Observations

Time (CST) Temp. Windchill Dew Point Humidity Pressure Visibility Wind Dir Wind Speed Gust Speed Precip Events Conditions
12:15 AM 49.5 °F - 39.2 °F 68% 30.09 in 10.0 mi NNE 10.4 mph - N/A   Overcast
12:35 AM 49.3 °F - 39.2 °F 68% 30.08 in 10.0 mi NNE 13.8 mph 20.7 mph N/A   Overcast
12:55 AM 48.9 °F - 38.8 °F 68% 30.07 in 10.0 mi NNE 12.7 mph 21.9 mph N/A   Overcast
1:15 AM 48.6 °F - 38.8 °F 69% 30.06 in 10.0 mi NNE 16.1 mph 20.7 mph N/A   Overcast
1:35 AM 48.2 °F - 38.8 °F 70% 30.07 in 10.0 mi NNE 12.7 mph 19.6 mph N/A   Overcast
1:55 AM 48.2 °F - 39.0 °F 71% 30.06 in 10.0 mi NNE 10.4 mph - N/A   Overcast
2:15 AM 48.2 °F - 39.4 °F 72% 30.06 in 10.0 mi NNE 10.4 mph 18.4 mph N/A   Overcast
2:35 AM 46.4 °F 40.4 °F 37.4 °F 71% 30.05 in 10.0 mi NNE 13.8 mph 20.7 mph N/A   Overcast
2:55 AM 47.8 °F - 39.4 °F 72% 30.07 in 10.0 mi NNE 10.4 mph 17.3 mph N/A   Overcast
3:15 AM 47.8 °F - 39.6 °F 73% 30.07 in 10.0 mi North 10.4 mph - N/A   Overcast
3:35 AM 47.5 °F - 39.7 °F 75% 30.08 in 10.0 mi North 11.5 mph 18.4 mph N/A   Overcast
3:55 AM 47.3 °F - 39.7 °F 75% 30.09 in 10.0 mi North 8.1 mph - N/A   Overcast
4:15 AM 47.1 °F - 39.7 °F 76% 30.09 in 10.0 mi North 11.5 mph 16.1 mph N/A   Overcast
4:35 AM 46.9 °F - 39.9 °F 77% 30.09 in 10.0 mi North 9.2 mph - N/A   Overcast
4:55 AM 46.8 °F - 39.9 °F 77% 30.09 in 10.0 mi North 10.4 mph 16.1 mph N/A   Overcast
5:15 AM 46.4 °F 41.5 °F 40.1 °F 79% 30.10 in 10.0 mi North 10.4 mph 17.3 mph N/A   Overcast
5:35 AM 45.9 °F 41.7 °F 40.1 °F 80% 30.11 in 10.0 mi NNW 8.1 mph - N/A   Overcast
5:55 AM 45.1 °F 40.8 °F 40.8 °F 85% 30.11 in 7.0 mi North 8.1 mph - N/A   Drizzle
6:15 AM 44.2 °F 39.2 °F 42.6 °F 94% 30.12 in 7.0 mi NNW 9.2 mph - N/A   Light Drizzle
6:35 AM 43.3 °F 37.2 °F 43.3 °F 100% 30.12 in 7.0 mi NNW 11.5 mph - N/A   Overcast
6:55 AM 42.4 °F 36.1 °F 42.4 °F 100% 30.13 in 10.0 mi NNW 11.5 mph - N/A   Overcast
7:15 AM 41.9 °F 35.9 °F 41.9 °F 100% 30.15 in 10.0 mi NNW 10.4 mph 17.3 mph N/A   Overcast
7:35 AM 41.4 °F 36.2 °F 41.4 °F 100% 30.16 in 7.0 mi NNW 8.1 mph - N/A   Light Drizzle
7:55 AM 41.0 °F 35.2 °F 41.0 °F 100% 30.16 in 5.0 mi NNW 9.2 mph - N/A   Overcast
8:15 AM 40.8 °F 33.7 °F 40.8 °F 100% 30.17 in 7.0 mi NNW 12.7 mph 18.4 mph N/A   Overcast
8:35 AM 40.3 °F 33.9 °F 40.3 °F 100% 30.17 in 5.0 mi North 10.4 mph 16.1 mph N/A   Overcast
8:55 AM 40.3 °F 33.4 °F 40.3 °F 100% 30.19 in 4.0 mi NNW 11.5 mph - N/A   Overcast
9:15 AM 40.5 °F 32.8 °F 40.5 °F 100% 30.19 in 5.0 mi North 13.8 mph - N/A   Overcast
9:35 AM 40.6 °F 32.7 °F 40.6 °F 100% 30.20 in 7.0 mi North 15.0 mph 23.0 mph N/A   Overcast
9:55 AM 41.0 °F 33.5 °F 41.0 °F 100% 30.20 in 10.0 mi North 13.8 mph 21.9 mph N/A   Overcast
10:15 AM 41.5 °F 33.8 °F 41.5 °F 100% 30.19 in 10.0 mi North 15.0 mph - N/A   Overcast
10:35 AM 42.3 °F 35.1 °F 42.3 °F 100% 30.18 in 10.0 mi North 13.8 mph - N/A   Overcast
10:55 AM 42.8 °F 34.8 °F 42.8 °F 100% 30.16 in 10.0 mi North 17.3 mph 24.2 mph N/A   Overcast
11:15 AM 43.0 °F 35.4 °F 42.3 °F 97% 30.16 in 10.0 mi North 16.1 mph 23.0 mph N/A   Overcast
11:35 AM 42.8 °F 35.4 °F 39.2 °F 87% 30.16 in 10.0 mi North 15.0 mph 20.7 mph N/A   Overcast
11:55 AM 44.6 °F 38.8 °F 40.1 °F 84% 30.15 in 10.0 mi North 11.5 mph - N/A   Overcast
12:15 PM 45.9 °F 39.7 °F 40.5 °F 81% 30.14 in 10.0 mi NNE 13.8 mph 19.6 mph N/A   Overcast
12:35 PM 46.2 °F 40.1 °F 40.6 °F 81% 30.12 in 10.0 mi NNE 13.8 mph 17.3 mph N/A   Overcast
12:55 PM 46.4 °F 40.7 °F 41.0 °F 81% 30.12 in 10.0 mi North 12.7 mph 16.1 mph N/A   Overcast
1:15 PM 46.6 °F - 40.8 °F 80% 30.11 in 10.0 mi North 12.7 mph 19.6 mph N/A   Overcast
1:55 PM 46.6 °F - 41.2 °F 81% 30.10 in 10.0 mi North 12.7 mph 17.3 mph N/A   Overcast
2:15 PM 47.3 °F - 41.4 °F 80% 30.10 in 10.0 mi North 12.7 mph - N/A   Overcast
2:35 PM 47.5 °F - 41.5 °F 80% 30.10 in 10.0 mi North 9.2 mph - N/A   Overcast
2:55 PM 47.3 °F - 41.5 °F 80% 30.10 in 10.0 mi North 11.5 mph 18.4 mph N/A   Overcast
3:15 PM 47.5 °F - 41.7 °F 80% 30.10 in 10.0 mi North 11.5 mph - N/A   Overcast
3:35 PM 47.7 °F - 41.5 °F 79% 30.11 in 10.0 mi NNE 8.1 mph - N/A   Overcast
3:55 PM 47.7 °F - 41.7 °F 80% 30.11 in 10.0 mi NNE 8.1 mph - N/A   Overcast
4:15 PM 46.4 °F 41.5 °F 41.0 °F 81% 30.11 in 10.0 mi North 10.4 mph - N/A   Overcast
4:35 PM 48.0 °F - 41.7 °F 79% 30.11 in 10.0 mi NNE 8.1 mph - N/A   Overcast
4:55 PM 48.0 °F - 41.9 °F 79% 30.11 in 10.0 mi NNE 6.9 mph - N/A   Overcast
5:15 PM 47.8 °F - 41.9 °F 80% 30.12 in 10.0 mi North 8.1 mph - N/A   Overcast
5:35 PM 47.7 °F - 41.9 °F 80% 30.12 in 10.0 mi North 9.2 mph - N/A   Overcast
5:55 PM 47.5 °F - 41.9 °F 81% 30.13 in 10.0 mi North 8.1 mph - N/A   Overcast
6:15 PM 47.3 °F - 41.7 °F 81% 30.13 in 10.0 mi North 6.9 mph - N/A   Overcast
6:35 PM 47.3 °F - 41.7 °F 81% 30.14 in 10.0 mi North 5.8 mph - N/A   Overcast
6:55 PM 47.3 °F - 41.9 °F 82% 30.13 in 10.0 mi NNE 6.9 mph - N/A   Overcast
7:15 PM 47.1 °F - 41.4 °F 80% 30.13 in 10.0 mi North 8.1 mph - N/A   Overcast
7:35 PM 46.8 °F - 41.2 °F 81% 30.12 in 10.0 mi NNE 10.4 mph - N/A   Overcast
7:55 PM 46.8 °F - 41.0 °F 80% 30.12 in 10.0 mi NNE 9.2 mph - N/A   Overcast
8:15 PM 46.8 °F - 41.0 °F 80% 30.12 in 10.0 mi NNE 9.2 mph - N/A   Overcast
8:35 PM 46.6 °F - 41.0 °F 81% 30.11 in 10.0 mi NNE 9.2 mph - N/A   Overcast
8:55 PM 46.6 °F - 41.0 °F 81% 30.11 in 10.0 mi NE 8.1 mph - N/A   Overcast
9:15 PM 46.4 °F 43.5 °F 41.0 °F 81% 30.10 in 10.0 mi NNE 5.8 mph - N/A   Overcast
9:35 PM 46.6 °F - 41.2 °F 81% 30.10 in 10.0 mi NE 6.9 mph - N/A   Overcast
9:55 PM 46.4 °F 41.5 °F 41.0 °F 81% 30.10 in 10.0 mi NE 10.4 mph - N/A   Overcast
10:15 PM 46.8 °F - 41.2 °F 81% 30.11 in 10.0 mi NE 6.9 mph - N/A   Overcast
10:35 PM 46.9 °F - 41.4 °F 81% 30.10 in 10.0 mi NE 9.2 mph - N/A   Overcast
10:55 PM 46.8 °F - 41.4 °F 81% 30.10 in 10.0 mi NE 8.1 mph - N/A   Overcast
11:15 PM 46.8 °F - 41.4 °F 81% 30.10 in 10.0 mi NE 6.9 mph - N/A   Overcast
11:35 PM 46.6 °F - 41.4 °F 82% 30.10 in 10.0 mi ENE 6.9 mph - N/A   Overcast
11:55 PM 46.6 °F - 41.5 °F 83% 30.09 in 10.0 mi NE 5.8 mph - N/A   Overcast